CW9181 Weather Reports


Display with metric or nautical units.
time (UTC)temp
F
wind
direction
speed
MPH
gust
MPH
rain 1hr
in
rain 24hr
in
rain mn
in
humidity
%
barometer
mb
20260503031815 65 192 3.0 5.0 0.00 0.00 0.00 65 1010.1
20260503030837 66 236 0.0 4.0 0.00 0.00 0.00 64 1010.0
20260503025811 66 234 0.0 5.0 0.00 0.00 0.00 64 1009.8
20260503024811 67 255 2.0 4.0 0.00 0.00 0.00 63 1009.9
20260503023809 68 236 1.0 5.0 0.00 0.00 0.00 61 1009.8
20260503022811 68 250 2.0 6.0 0.00 0.00 0.00 59 1009.8
20260503021830 69 184 2.0 9.0 0.00 0.00 0.00 60 1009.7
20260503020808 69 234 3.0 8.0 0.00 0.00 0.00 58 1009.7
20260503015813 70 232 3.0 8.0 0.00 0.00 0.00 57 1009.8
20260503014811 71 170 2.0 8.0 0.00 0.00 0.00 57 1009.6
20260503013829 71 159 2.0 5.0 0.00 0.00 0.00 56 1009.6
20260503012808 71 218 3.0 7.0 0.00 0.00 0.00 57 1009.7
20260503011805 72 232 3.0 6.0 0.00 0.00 0.00 56 1009.6
20260503010810 73 199 3.0 7.0 0.00 0.00 0.00 55 1009.5
20260503005809 72 207 3.0 8.0 0.00 0.00 0.00 56 1009.5
20260503004808 73 228 4.0 8.0 0.00 0.00 0.00 55 1009.6
20260503003806 73 249 4.0 8.0 0.00 0.00 0.00 54 1009.6
20260503002806 74 175 3.0 7.0 0.00 0.00 0.00 52 1009.6
20260503001805 73 235 2.0 9.0 0.00 0.00 0.00 53 1009.7
20260503000806 74 216 6.0 10.0 0.00 0.00 0.00 51 1009.8
20260502235823 74 159 4.0 8.0 0.00 0.00 0.00 53 1009.9
20260502234840 73 214 2.0 7.0 0.00 0.00 0.00 53 1010.1
20260502233817 74 164 4.0 7.0 0.00 0.00 0.00 49 1010.0
20260502232816 75 238 2.0 8.0 0.00 0.00 0.00 48 1010.1
20260502231833 74 114 4.0 7.0 0.00 0.00 0.00 49 1010.2
20260502230832 75 151 2.0 7.0 0.00 0.00 0.00 49 1010.3
20260502225812 74 188 2.0 8.0 0.00 0.00 0.00 50 1010.5
20260502224807 74 233 1.0 5.0 0.00 0.00 0.00 49 1010.7
20260502223806 75 166 2.0 8.0 0.00 0.00 0.00 50 1010.8
20260502222830 74 207 3.0 8.0 0.00 0.00 0.00 53 1011.0
20260502221828 74 149 1.0 8.0 0.00 0.00 0.00 55 1011.3
20260502220831 73 195 2.0 8.0 0.00 0.00 0.00 55 1011.3
20260502215809 73 211 4.0 9.0 0.00 0.00 0.00 53 1011.5
20260502214813 72 222 6.0 10.0 0.00 0.00 0.00 53 1011.6
20260502213815 73 265 3.0 8.0 0.00 0.00 0.00 54 1011.6
20260502212812 73 239 2.0 10.0 0.00 0.00 0.00 56 1011.8
20260502211814 73 169 3.0 7.0 0.00 0.00 0.00 56 1012.0
20260502210818 72 220 5.0 10.0 0.00 0.00 0.00 55 1012.1
20260502205818 72 211 1.0 5.0 0.00 0.00 0.00 60 1012.1
20260502204817 71 235 2.0 11.0 0.00 0.00 0.00 61 1012.3
20260502203814 70 157 5.0 10.0 0.00 0.00 0.00 59 1012.4
20260502202819 70 157 4.0 9.0 0.00 0.00 0.00 62 1012.4
20260502201836 70 159 5.0 9.0 0.00 0.00 0.00 61 1012.6
20260502200816 69 164 4.0 10.0 0.00 0.00 0.00 63 1012.5
20260502195817 67 134 4.0 9.0 0.00 0.00 0.00 64 1012.5
20260502194813 67 162 4.0 8.0 0.00 0.00 0.00 65 1012.7
20260502193816 66 142 5.0 10.0 0.00 0.00 0.00 65 1012.7
20260502192818 67 145 5.0 8.0 0.00 0.00 0.00 66 1012.8
20260502191835 66 162 5.0 10.0 0.00 0.00 0.00 66 1012.9
20260502190834 66 178 6.0 11.0 0.00 0.00 0.00 67 1013.0
20260502185827 65 107 2.0 7.0 0.00 0.00 0.00 70 1013.2
20260502184822 65 151 2.0 9.0 0.00 0.00 0.00 70 1013.0
20260502183842 65 214 2.0 8.0 0.00 0.00 0.00 71 1012.9
20260502182817 63 207 4.0 9.0 0.00 0.00 0.00 71 1012.9
20260502181817 63 173 3.0 8.0 0.00 0.00 0.00 72 1013.1
20260502180840 63 153 3.0 9.0 0.00 0.00 0.00 72 1013.0
20260502163819 61 172 4.0 6.0 0.00 0.00 0.00 76 1013.0
20260502162816 61 148 4.0 9.0 0.00 0.00 0.00 76 1012.8
20260502161817 60 165 3.0 9.0 0.00 0.00 0.00 77 1012.8
20260502160819 60 158 5.0 9.0 0.00 0.00 0.00 76 1012.6
20260502151823 57 100 2.0 7.0 0.00 0.00 0.00 82 1012.4
20260502150808 56 130 4.0 9.0 0.00 0.00 0.00 83 1012.3
20260502122805 55 127 2.0 5.0 0.00 0.00 0.00 84 1011.1
20260502121808 55 166 2.0 6.0 0.00 0.00 0.00 83 1011.2
20260502120806 55 193 2.0 9.0 0.00 0.00 0.00 83 1011.1
20260502115805 55 137 4.0 8.0 0.00 0.00 0.00 82 1011.2
20260502114808 55 155 4.0 7.0 0.00 0.00 0.00 82 1011.4
20260502113804 56 150 5.0 8.0 0.00 0.00 0.00 81 1011.5
20260502112803 56 176 3.0 7.0 0.00 0.00 0.00 81 1011.5
20260502111807 56 165 4.0 10.0 0.00 0.00 0.00 81 1011.2
20260502110808 56 177 3.0 8.0 0.00 0.00 0.00 81 1011.2
20260502105811 57 136 2.0 6.0 0.00 0.00 0.00 80 1011.3
20260502104813 57 174 2.0 7.0 0.00 0.00 0.00 80 1011.4
20260502103834 57 139 2.0 5.0 0.00 0.00 0.00 80 1011.4
20260502102840 57 159 3.0 8.0 0.00 0.00 0.00 80 1011.4
20260502101841 57 116 2.0 7.0 0.00 0.00 0.00 80 1011.4
20260502100819 58 151 2.0 8.0 0.00 0.00 0.00 79 1011.3
20260502090812 59 137 1.0 5.0 0.00 0.00 0.00 78 1011.6
20260502070819 62 182 4.0 10.0 0.00 0.00 0.00 77 1011.8
20260502065831 63 151 2.0 9.0 0.00 0.00 0.00 77 1011.8
20260502064822 63 140 4.0 8.0 0.00 0.00 0.00 77 1011.7
20260502063822 64 110 3.0 7.0 0.00 0.00 0.00 76 1011.7
20260502062823 64 130 3.0 7.0 0.00 0.00 0.00 75 1011.5
20260502061819 65 193 5.0 9.0 0.00 0.00 0.00 75 1011.5
20260502060816 65 144 4.0 8.0 0.00 0.00 0.00 74 1011.7
20260502055835 66 149 3.0 8.0 0.00 0.00 0.00 74 1011.7
20260502054809 66 171 4.0 7.0 0.00 0.00 0.00 73 1011.7
20260502053806 67 126 4.0 10.0 0.00 0.00 0.00 72 1011.6
20260502052825 67 192 4.0 7.0 0.00 0.00 0.00 71 1011.7
20260502051822 68 151 3.0 7.0 0.00 0.00 0.00 70 1011.5
20260502050816 68 156 3.0 7.0 0.00 0.00 0.00 70 1011.5
20260502045808 69 132 0.0 3.0 0.00 0.00 0.00 68 1011.4
20260502044822 69 168 1.0 4.0 0.00 0.00 0.00 67 1011.3
20260502043819 70 193 1.0 4.0 0.00 0.00 0.00 66 1011.2
20260502042818 70 159 0.0 6.0 0.00 0.00 0.00 65 1011.1
20260502041810 71 199 2.0 6.0 0.00 0.00 0.00 64 1011.1
20260502040806 72 182 1.0 4.0 0.00 0.00 0.00 63 1011.0
20260502035823 72 192 2.0 9.0 0.00 0.00 0.00 61 1010.8
20260502034815 73 223 1.0 7.0 0.00 0.00 0.00 59 1010.7
20260502033815 74 214 2.0 6.0 0.00 0.00 0.00 56 1010.5
20260502032815 74 188 1.0 5.0 0.00 0.00 0.00 54 1010.4